Regional Weather Roundup
Issued by NWS

Home | Current Version | Previous Version | Graphics & Text | Print | Product List | Glossary On
Versions: 1 2 3 4 5 6 7 8 9 10 11 12 13 14 15 16 17 18 19 20 21 22 23 24 25 26 27 28
000
ASUS45 KCYS 231010
RWRWY

WYOMING REGIONAL WEATHER ROUNDUP
NATIONAL WEATHER SERVICE CHEYENNE WY
400 AM MDT FRI JUN 23 2017

NOTE:  "FAIR" INDICATES FEW OR NO CLOUDS BELOW 12,000 FEET
WITH NO SIGNIFICANT WEATHER AND/OR OBSTRUCTIONS TO VISIBILITY.

WYZ001-231100-
YELLOWSTONE NATIONAL PARK

CITY           SKY/WX    TMP DP  RH WIND       PRES   REMARKS
LK YELLOWSTONE   N/A     30  26  85 CALM      30.35S
W YELLOWSTONE  NOT AVBL

$$
WYZ002>013-054>058-071-098>099-231100-
NORTHERN WYOMING

CITY           SKY/WX    TMP DP  RH WIND       PRES   REMARKS
JACKSON        FAIR      45  30  57 N12       30.26S
CODY           FAIR      41  33  73 SW6       30.32S
GREYBULL       FAIR      51  30  44 W12       30.26S
WORLAND        FAIR      46  37  71 SW8       30.28S
SHERIDAN       FAIR      44  37  76 W8        30.27F
BUFFALO        FAIR      44  36  73 N9        30.29R
GILLETTE       FAIR      44  36  73 NW9       30.25F
NEWCASTLE      FAIR      48  36  61 NW17      30.24R

$$
WYZ014>020-022>026-101>103-231100-
CENTRAL WYOMING

CITY           SKY/WX    TMP DP  RH WIND       PRES   REMARKS
BIG PINEY      FAIR      43  33  68 SW5       30.29R
PINEDALE       FAIR      41  34  75 CALM      30.29R
DUBOIS         FAIR      37  28  70 S5        30.31S WCI  34
LANDER         FAIR      45  32  60 CALM      30.31S
RIVERTON       FAIR      44  32  62 CALM      30.31S
CASPER         FAIR      46  34  62 NE8       30.32R
DOUGLAS        MOCLDY    49  36  61 N16G26    30.31R

$$
WYZ021-027>030-104>119-231100-
SOUTHERN WYOMING

CITY           SKY/WX    TMP DP  RH WIND       PRES   REMARKS
EVANSTON       FAIR      51  34  52 SE3       30.25F
KEMMERER         N/A     48  28  46 NE10G18   30.30R
FORT BRIDGER   FAIR      48  34  57 NE7       30.30S
ROCK SPRINGS   FAIR      48  26  42 NE18      30.28R
DIXON          FAIR      52  32  46 NE12      30.24R
RAWLINS        FAIR      48  30  49 NE15      30.29R
SARATOGA       FAIR      48  32  53 N12G17    30.27R
LARAMIE        CLOUDY    48  33  56 NE14G23   30.30R
CHEYENNE       CLOUDY    51  38  60 NE14G24   30.27R
TORRINGTON     CLOUDY    53  38  56 N15G28    30.25R
PINE BLUFFS    CLOUDY    50  45  81 NE13      30.24R

$$




USA.gov is the U.S. government's official web portal to all federal, state and local government web resources and services.